| time (UTC) | temp F | wind direction | speed knots | gust knots | rain 1hr in | rain 24hr in | rain mn in | humidity % | barometer mb |
| 20260502180510 | 67 | 332 | 10.4 | 20.9 | 0.00 | 0.00 | 0.00 | 35 | 1001.0 |
| 20260502170514 | 67 | 334 | 15.6 | 21.7 | 0.00 | 0.00 | 0.00 | 35 | 1001.1 |
| 20260502164006 | 66 | 5 | 12.2 | 20.0 | 0.00 | 0.00 | 0.00 | 38 | 1000.8 |
| 20260502163606 | 66 | 331 | 13.9 | 20.9 | 0.00 | 0.00 | 0.00 | 38 | 1000.8 |
| 20260502163007 | 66 | 332 | 12.2 | 20.9 | 0.00 | 0.00 | 0.00 | 38 | 1000.8 |
| 20260502162508 | 66 | 344 | 14.8 | 20.9 | 0.00 | 0.00 | 0.00 | 37 | 1000.8 |
| 20260502162007 | 66 | 9 | 13.0 | 20.0 | 0.00 | 0.00 | 0.00 | 37 | 1000.8 |
| 20260502161506 | 66 | 355 | 11.3 | 19.1 | 0.00 | 0.00 | 0.00 | 37 | 1000.7 |
| 20260502161006 | 66 | 329 | 12.2 | 18.2 | 0.00 | 0.00 | 0.00 | 37 | 1000.7 |
| 20260502160510 | 67 | 346 | 11.3 | 17.4 | 0.00 | 0.00 | 0.00 | 36 | 1000.6 |
| 20260502152004 | 64 | 345 | 9.6 | 13.9 | 0.00 | 0.00 | 0.00 | 40 | 1000.7 |
| 20260502151505 | 63 | 346 | 11.3 | 16.5 | 0.00 | 0.00 | 0.00 | 40 | 1000.7 |
| 20260502151004 | 64 | 342 | 9.6 | 16.5 | 0.00 | 0.00 | 0.00 | 38 | 1000.7 |
| 20260502150504 | 64 | 350 | 9.6 | 13.0 | 0.00 | 0.00 | 0.00 | 40 | 1000.6 |
| 20260502130606 | 55 | 360 | 13.0 | 17.4 | 0.00 | 0.00 | 0.00 | 48 | 1000.3 |
| 20260502123557 | 49 | 360 | 7.8 | 10.4 | 0.00 | 0.00 | 0.00 | 52 | 1000.2 |
| 20260502122604 | 49 | 360 | 7.0 | 11.3 | 0.00 | 0.00 | 0.00 | 52 | 1000.2 |
| 20260502122058 | 49 | 360 | 8.7 | 12.2 | 0.00 | 0.00 | 0.00 | 52 | 1000.2 |
| 20260502121559 | 49 | 360 | 9.6 | 12.2 | 0.00 | 0.00 | 0.00 | 52 | 999.9 |
| 20260502121101 | 48 | 360 | 7.8 | 11.3 | 0.00 | 0.00 | 0.00 | 53 | 999.9 |
| 20260502120557 | 47 | 360 | 9.6 | 11.3 | 0.00 | 0.00 | 0.00 | 53 | 999.7 |
| 20260502115556 | 48 | 360 | 8.7 | 11.3 | 0.00 | 0.00 | 0.00 | 52 | 1000.0 |
| 20260502115056 | 47 | 360 | 8.7 | 10.4 | 0.00 | 0.00 | 0.00 | 52 | 1000.2 |
| 20260502114558 | 47 | 360 | 7.8 | 10.4 | 0.00 | 0.00 | 0.00 | 52 | 1000.3 |
| 20260502114057 | 48 | 360 | 7.8 | 10.4 | 0.00 | 0.00 | 0.00 | 51 | 1000.3 |
| 20260502113556 | 48 | 360 | 7.8 | 9.6 | 0.00 | 0.00 | 0.00 | 51 | 1000.3 |
| 20260502112555 | 47 | 360 | 7.8 | 9.6 | 0.00 | 0.00 | 0.00 | 52 | 1000.5 |
| 20260502112055 | 47 | 360 | 5.2 | 9.6 | 0.00 | 0.00 | 0.00 | 51 | 1000.5 |
| 20260502111601 | 47 | 360 | 4.3 | 9.6 | 0.00 | 0.00 | 0.00 | 51 | 1000.4 |
| 20260502111055 | 47 | 360 | 6.1 | 9.6 | 0.00 | 0.00 | 0.00 | 51 | 1000.3 |
| 20260502110557 | 45 | 360 | 7.0 | 9.6 | 0.00 | 0.00 | 0.00 | 53 | 1000.4 |
| 20260502110055 | 44 | 360 | 6.1 | 7.8 | 0.00 | 0.00 | 0.00 | 53 | 1000.5 |
| 20260502105555 | 45 | 360 | 6.1 | 12.2 | 0.00 | 0.00 | 0.00 | 52 | 1000.1 |
| 20260502105055 | 46 | 360 | 7.0 | 13.9 | 0.00 | 0.00 | 0.00 | 51 | 1000.1 |
| 20260502104607 | 46 | 360 | 10.4 | 13.9 | 0.00 | 0.00 | 0.00 | 51 | 1000.0 |
| 20260502104054 | 46 | 360 | 8.7 | 11.3 | 0.00 | 0.00 | 0.00 | 52 | 1000.1 |
| 20260502103554 | 46 | 360 | 9.6 | 12.2 | 0.00 | 0.00 | 0.00 | 52 | 1000.1 |
| 20260502102557 | 45 | 360 | 7.8 | 10.4 | 0.00 | 0.00 | 0.00 | 54 | 1000.0 |
| 20260502102053 | 44 | 360 | 8.7 | 10.4 | 0.00 | 0.00 | 0.00 | 55 | 1000.2 |
| 20260502101607 | 44 | 360 | 8.7 | 11.3 | 0.00 | 0.00 | 0.00 | 55 | 1000.1 |
| 20260502101052 | 44 | 360 | 8.7 | 11.3 | 0.00 | 0.00 | 0.00 | 54 | 1000.1 |
| 20260502100552 | 44 | 360 | 8.7 | 11.3 | 0.00 | 0.00 | 0.00 | 55 | 1000.1 |
| 20260502091047 | 46 | 360 | 9.6 | 13.9 | 0.00 | 0.00 | 0.00 | 52 | 1000.6 |
| 20260502090546 | 45 | 360 | 9.6 | 13.0 | 0.00 | 0.00 | 0.00 | 52 | 1000.5 |
| 20260502071533 | 48 | 360 | 8.7 | 12.2 | 0.00 | 0.00 | 0.00 | 44 | 1001.7 |
| 20260502071032 | 48 | 360 | 9.6 | 12.2 | 0.00 | 0.00 | 0.00 | 44 | 1001.7 |
| 20260502070532 | 48 | 360 | 8.7 | 11.3 | 0.00 | 0.00 | 0.00 | 44 | 1001.6 |
| 20260502070052 | 48 | 360 | 7.8 | 11.3 | 0.00 | 0.00 | 0.00 | 45 | 1001.7 |
| 20260502065531 | 47 | 360 | 8.7 | 11.3 | 0.00 | 0.00 | 0.00 | 45 | 1001.8 |
| 20260502065033 | 47 | 360 | 8.7 | 12.2 | 0.00 | 0.00 | 0.00 | 44 | 1001.7 |
| 20260502064530 | 47 | 360 | 9.6 | 12.2 | 0.00 | 0.00 | 0.00 | 44 | 1001.7 |
| 20260502064030 | 47 | 360 | 9.6 | 12.2 | 0.00 | 0.00 | 0.00 | 44 | 1001.7 |
| 20260502063529 | 47 | 360 | 9.6 | 12.2 | 0.00 | 0.00 | 0.00 | 43 | 1001.8 |
| 20260502062533 | 47 | 360 | 9.6 | 12.2 | 0.00 | 0.00 | 0.00 | 43 | 1002.0 |
| 20260502062028 | 47 | 360 | 8.7 | 11.3 | 0.00 | 0.00 | 0.00 | 43 | 1002.0 |
| 20260502061527 | 48 | 360 | 9.6 | 11.3 | 0.00 | 0.00 | 0.00 | 43 | 1002.0 |
| 20260502061027 | 48 | 360 | 9.6 | 12.2 | 0.00 | 0.00 | 0.00 | 42 | 1002.3 |
| 20260502060527 | 49 | 360 | 9.6 | 12.2 | 0.00 | 0.00 | 0.00 | 41 | 1002.1 |
| 20260502060036 | 49 | 360 | 9.6 | 12.2 | 0.00 | 0.00 | 0.00 | 41 | 1002.1 |
| 20260502055526 | 49 | 360 | 9.6 | 12.2 | 0.00 | 0.00 | 0.00 | 41 | 1002.3 |
| 20260502055026 | 49 | 360 | 9.6 | 12.2 | 0.00 | 0.00 | 0.00 | 40 | 1002.3 |
| 20260502054538 | 49 | 360 | 8.7 | 13.0 | 0.00 | 0.00 | 0.00 | 40 | 1002.3 |
| 20260502054025 | 49 | 360 | 9.6 | 13.0 | 0.00 | 0.00 | 0.00 | 40 | 1002.4 |
| 20260502053525 | 49 | 360 | 9.6 | 13.0 | 0.00 | 0.00 | 0.00 | 40 | 1002.5 |
| 20260502052526 | 49 | 360 | 9.6 | 13.0 | 0.00 | 0.00 | 0.00 | 40 | 1002.4 |
| 20260502052028 | 48 | 360 | 9.6 | 12.2 | 0.00 | 0.00 | 0.00 | 40 | 1002.4 |
| 20260502051522 | 47 | 360 | 7.8 | 10.4 | 0.00 | 0.00 | 0.00 | 41 | 1002.6 |
| 20260502051024 | 47 | 360 | 7.0 | 8.7 | 0.00 | 0.00 | 0.00 | 41 | 1002.7 |
| 20260502050522 | 48 | 360 | 6.1 | 8.7 | 0.00 | 0.00 | 0.00 | 40 | 1002.5 |
| 20260502050022 | 48 | 360 | 7.0 | 8.7 | 0.00 | 0.00 | 0.00 | 40 | 1002.8 |
| 20260502045522 | 48 | 360 | 7.0 | 8.7 | 0.00 | 0.00 | 0.00 | 39 | 1002.8 |
| 20260502045021 | 48 | 360 | 7.0 | 8.7 | 0.00 | 0.00 | 0.00 | 40 | 1002.7 |
| 20260502044521 | 47 | 360 | 6.1 | 7.0 | 0.00 | 0.00 | 0.00 | 40 | 1002.8 |
| 20260502044019 | 47 | 360 | 5.2 | 7.0 | 0.00 | 0.00 | 0.00 | 41 | 1003.0 |
| 20260502043518 | 47 | 360 | 5.2 | 7.8 | 0.00 | 0.00 | 0.00 | 40 | 1003.1 |
| 20260502042518 | 47 | 360 | 6.1 | 7.8 | 0.00 | 0.00 | 0.00 | 40 | 1003.2 |
| 20260502042017 | 47 | 360 | 6.1 | 7.8 | 0.00 | 0.00 | 0.00 | 39 | 1003.2 |
| 20260502041528 | 48 | 360 | 6.1 | 8.7 | 0.00 | 0.00 | 0.00 | 38 | 1003.3 |
| 20260502041014 | 49 | 360 | 7.0 | 8.7 | 0.00 | 0.00 | 0.00 | 38 | 1003.4 |
| 20260502040513 | 48 | 360 | 6.1 | 7.8 | 0.00 | 0.00 | 0.00 | 38 | 1003.3 |
| 20260502040028 | 49 | 360 | 5.2 | 7.0 | 0.00 | 0.00 | 0.00 | 38 | 1003.4 |
| 20260502035511 | 49 | 360 | 5.2 | 8.7 | 0.00 | 0.00 | 0.00 | 37 | 1003.4 |
| 20260502035011 | 50 | 360 | 6.1 | 8.7 | 0.00 | 0.00 | 0.00 | 36 | 1003.4 |
| 20260502034509 | 50 | 360 | 6.1 | 9.6 | 0.00 | 0.00 | 0.00 | 36 | 1003.4 |
| 20260502034009 | 51 | 360 | 7.0 | 9.6 | 0.00 | 0.00 | 0.00 | 35 | 1003.5 |
| 20260502033510 | 51 | 360 | 7.0 | 8.7 | 0.00 | 0.00 | 0.00 | 35 | 1003.4 |
| 20260502032506 | 51 | 360 | 7.0 | 8.7 | 0.00 | 0.00 | 0.00 | 35 | 1003.4 |
| 20260502032006 | 51 | 360 | 7.0 | 8.7 | 0.00 | 0.00 | 0.00 | 35 | 1003.5 |
| 20260502031506 | 51 | 360 | 7.0 | 8.7 | 0.00 | 0.00 | 0.00 | 35 | 1003.4 |
| 20260502031005 | 51 | 360 | 7.0 | 9.6 | 0.00 | 0.00 | 0.00 | 35 | 1003.6 |
| 20260502030504 | 51 | 360 | 7.0 | 9.6 | 0.00 | 0.00 | 0.00 | 34 | 1003.5 |
| 20260502030003 | 51 | 360 | 7.0 | 8.7 | 0.00 | 0.00 | 0.00 | 34 | 1003.5 |
| 20260502025501 | 52 | 360 | 6.1 | 8.7 | 0.00 | 0.00 | 0.00 | 34 | 1003.5 |
| 20260502025004 | 52 | 360 | 6.1 | 7.8 | 0.00 | 0.00 | 0.00 | 34 | 1003.8 |
| 20260502024501 | 52 | 360 | 6.1 | 7.8 | 0.00 | 0.00 | 0.00 | 34 | 1003.6 |
| 20260502024100 | 52 | 360 | 6.1 | 8.7 | 0.00 | 0.00 | 0.00 | 33 | 1003.5 |
| 20260502023558 | 53 | 360 | 6.1 | 7.8 | 0.00 | 0.00 | 0.00 | 33 | 1003.4 |
| 20260502022559 | 55 | 360 | 6.1 | 7.8 | 0.00 | 0.00 | 0.00 | 31 | 1003.5 |
| 20260502022056 | 56 | 360 | 5.2 | 8.7 | 0.00 | 0.00 | 0.00 | 30 | 1003.5 |
| 20260502021555 | 56 | 360 | 7.0 | 8.7 | 0.00 | 0.00 | 0.00 | 30 | 1003.4 |
| 20260502021055 | 56 | 360 | 6.1 | 8.7 | 0.00 | 0.00 | 0.00 | 30 | 1003.5 |
| 20260502020553 | 57 | 360 | 6.1 | 8.7 | 0.00 | 0.00 | 0.00 | 30 | 1003.5 |
| 20260502020052 | 57 | 360 | 7.0 | 8.7 | 0.00 | 0.00 | 0.00 | 30 | 1003.5 |
| 20260502015554 | 58 | 360 | 6.1 | 8.7 | 0.00 | 0.00 | 0.00 | 29 | 1003.5 |
| 20260502015049 | 58 | 200 | 7.0 | 8.7 | 0.00 | 0.00 | 0.00 | 29 | 1003.6 |
| 20260502014555 | 59 | 196 | 6.1 | 7.8 | 0.00 | 0.00 | 0.00 | 29 | 1003.5 |
| 20260502014046 | 60 | 194 | 6.1 | 8.7 | 0.00 | 0.00 | 0.00 | 28 | 1003.5 |
| 20260502013544 | 61 | 196 | 5.2 | 8.7 | 0.00 | 0.00 | 0.00 | 28 | 1003.5 |
| 20260502012543 | 63 | 200 | 5.2 | 8.7 | 0.00 | 0.00 | 0.00 | 26 | 1003.6 |
| 20260502012042 | 64 | 205 | 7.0 | 12.2 | 0.00 | 0.00 | 0.00 | 24 | 1003.8 |
| 20260502011600 | 64 | 207 | 7.0 | 11.3 | 0.00 | 0.00 | 0.00 | 24 | 1003.7 |
| 20260502011039 | 64 | 210 | 8.7 | 11.3 | 0.00 | 0.00 | 0.00 | 24 | 1003.9 |
| 20260502010541 | 65 | 201 | 7.0 | 10.4 | 0.00 | 0.00 | 0.00 | 23 | 1003.9 |
| 20260502010140 | 65 | 201 | 6.1 | 11.3 | 0.00 | 0.00 | 0.00 | 24 | 1003.9 |
| 20260502005538 | 65 | 360 | 7.0 | 11.3 | 0.00 | 0.00 | 0.00 | 23 | 1003.9 |
| 20260502005039 | 65 | 205 | 7.0 | 12.2 | 0.00 | 0.00 | 0.00 | 23 | 1003.8 |
| 20260502004539 | 65 | 202 | 7.8 | 12.2 | 0.00 | 0.00 | 0.00 | 22 | 1003.9 |
| 20260502004037 | 65 | 360 | 6.1 | 11.3 | 0.00 | 0.00 | 0.00 | 24 | 1003.9 |
| 20260502003538 | 66 | 360 | 7.8 | 12.2 | 0.00 | 0.00 | 0.00 | 23 | 1003.9 |
| 20260502002537 | 66 | 180 | 7.8 | 12.2 | 0.00 | 0.00 | 0.00 | 23 | 1004.1 |
| 20260502002038 | 66 | 198 | 5.2 | 11.3 | 0.00 | 0.00 | 0.00 | 22 | 1004.0 |
| 20260502001541 | 66 | 182 | 7.8 | 11.3 | 0.00 | 0.00 | 0.00 | 23 | 1004.0 |
| 20260502001040 | 67 | 183 | 7.0 | 10.4 | 0.00 | 0.00 | 0.00 | 22 | 1004.0 |
| 20260502000535 | 67 | 220 | 5.2 | 11.3 | 0.00 | 0.00 | 0.00 | 23 | 1004.1 |
| 20260502000052 | 67 | 360 | 7.8 | 11.3 | 0.00 | 0.00 | 0.00 | 22 | 1004.0 |
| 20260501235534 | 66 | 203 | 7.8 | 11.3 | 0.00 | 0.00 | 0.00 | 22 | 1004.1 |
| 20260501235034 | 66 | 178 | 7.0 | 11.3 | 0.00 | 0.00 | 0.00 | 23 | 1004.1 |
| 20260501234534 | 66 | 160 | 6.1 | 12.2 | 0.00 | 0.00 | 0.00 | 23 | 1004.1 |
| 20260501234033 | 67 | 150 | 7.0 | 13.0 | 0.00 | 0.00 | 0.00 | 23 | 1004.1 |
| 20260501233532 | 66 | 184 | 10.4 | 13.9 | 0.00 | 0.00 | 0.00 | 23 | 1004.1 |
| 20260501232534 | 67 | 183 | 3.5 | 8.7 | 0.00 | 0.00 | 0.00 | 23 | 1004.2 |
| 20260501232033 | 67 | 217 | 2.6 | 12.2 | 0.00 | 0.00 | 0.00 | 22 | 1004.2 |
| 20260501231532 | 67 | 167 | 7.0 | 11.3 | 0.00 | 0.00 | 0.00 | 23 | 1004.3 |
| 20260501231032 | 66 | 184 | 6.1 | 11.3 | 0.00 | 0.00 | 0.00 | 22 | 1004.3 |
| 20260501230531 | 66 | 360 | 7.0 | 13.0 | 0.00 | 0.00 | 0.00 | 22 | 1004.3 |
| 20260501230104 | 66 | 155 | 7.0 | 13.0 | 0.00 | 0.00 | 0.00 | 23 | 1004.4 |
| 20260501225532 | 67 | 161 | 7.0 | 12.2 | 0.00 | 0.00 | 0.00 | 22 | 1004.4 |
| 20260501225030 | 66 | 219 | 4.3 | 9.6 | 0.00 | 0.00 | 0.00 | 23 | 1004.5 |
| 20260501224530 | 66 | 167 | 3.5 | 12.2 | 0.00 | 0.00 | 0.00 | 22 | 1004.6 |
| 20260501224027 | 66 | 360 | 7.0 | 16.5 | 0.00 | 0.00 | 0.00 | 23 | 1004.7 |
| 20260501223528 | 66 | 198 | 10.4 | 16.5 | 0.00 | 0.00 | 0.00 | 23 | 1004.7 |
| 20260501222530 | 66 | 152 | 9.6 | 15.6 | 0.00 | 0.00 | 0.00 | 23 | 1004.8 |
| 20260501222026 | 66 | 125 | 7.8 | 10.4 | 0.00 | 0.00 | 0.00 | 22 | 1004.7 |
| 20260501221526 | 65 | 59 | 3.5 | 10.4 | 0.00 | 0.00 | 0.00 | 22 | 1004.8 |
| 20260501221029 | 65 | 116 | 5.2 | 10.4 | 0.00 | 0.00 | 0.00 | 22 | 1004.9 |
| 20260501220525 | 66 | 121 | 5.2 | 9.6 | 0.00 | 0.00 | 0.00 | 22 | 1004.9 |
| 20260501220024 | 66 | 161 | 5.2 | 12.2 | 0.00 | 0.00 | 0.00 | 22 | 1004.9 |
| 20260501215526 | 66 | 178 | 8.7 | 12.2 | 0.00 | 0.00 | 0.00 | 23 | 1005.0 |
| 20260501215026 | 65 | 184 | 5.2 | 11.3 | 0.00 | 0.00 | 0.00 | 24 | 1005.1 |
| 20260501214523 | 65 | 106 | 5.2 | 13.0 | 0.00 | 0.00 | 0.00 | 23 | 1005.1 |
| 20260501214021 | 65 | 360 | 5.2 | 13.0 | 0.00 | 0.00 | 0.00 | 24 | 1005.2 |
| 20260501213521 | 65 | 133 | 11.3 | 17.4 | 0.00 | 0.00 | 0.00 | 24 | 1005.3 |
| 20260501212520 | 65 | 157 | 9.6 | 17.4 | 0.00 | 0.00 | 0.00 | 26 | 1005.2 |
| 20260501212019 | 65 | 215 | 0.0 | 13.0 | 0.00 | 0.00 | 0.00 | 25 | 1005.4 |
| 20260501211519 | 65 | 214 | 5.2 | 15.6 | 0.00 | 0.00 | 0.00 | 23 | 1005.5 |
| 20260501211017 | 65 | 168 | 7.0 | 13.9 | 0.00 | 0.00 | 0.00 | 26 | 1005.5 |
| 20260501210520 | 65 | 236 | 4.3 | 12.2 | 0.00 | 0.00 | 0.00 | 24 | 1005.4 |
| 20260501210015 | 64 | 184 | 6.1 | 12.2 | 0.00 | 0.00 | 0.00 | 25 | 1005.5 |
| 20260501205515 | 64 | 109 | 1.7 | 9.6 | 0.00 | 0.00 | 0.00 | 26 | 1005.5 |
| 20260501205016 | 64 | 126 | 7.0 | 11.3 | 0.00 | 0.00 | 0.00 | 25 | 1005.7 |
| 20260501204514 | 64 | 134 | 6.1 | 13.9 | 0.00 | 0.00 | 0.00 | 26 | 1005.8 |
| 20260501204014 | 64 | 157 | 7.0 | 15.6 | 0.00 | 0.00 | 0.00 | 26 | 1005.8 |
| 20260501203512 | 65 | 143 | 5.2 | 11.3 | 0.00 | 0.00 | 0.00 | 25 | 1005.8 |
| 20260501202511 | 65 | 360 | 2.6 | 7.8 | 0.00 | 0.00 | 0.00 | 24 | 1005.8 |
| 20260501202011 | 65 | 228 | 3.5 | 8.7 | 0.00 | 0.00 | 0.00 | 26 | 1005.9 |
| 20260501201509 | 64 | 101 | 1.7 | 13.9 | 0.00 | 0.00 | 0.00 | 28 | 1005.8 |
| 20260501201008 | 63 | 128 | 5.2 | 13.9 | 0.00 | 0.00 | 0.00 | 27 | 1005.9 |
| 20260501200508 | 64 | 100 | 7.0 | 11.3 | 0.00 | 0.00 | 0.00 | 26 | 1005.9 |
| 20260501200009 | 63 | 205 | 2.6 | 13.0 | 0.00 | 0.00 | 0.00 | 27 | 1005.8 |
| 20260501195509 | 63 | 227 | 6.1 | 13.0 | 0.00 | 0.00 | 0.00 | 28 | 1005.9 |
| 20260501195010 | 63 | 194 | 5.2 | 10.4 | 0.00 | 0.00 | 0.00 | 27 | 1006.0 |
| 20260501194506 | 63 | 214 | 5.2 | 10.4 | 0.00 | 0.00 | 0.00 | 27 | 1005.9 |
| 20260501194005 | 63 | 180 | 5.2 | 11.3 | 0.00 | 0.00 | 0.00 | 26 | 1005.9 |
| 20260501193506 | 63 | 187 | 7.0 | 13.0 | 0.00 | 0.00 | 0.00 | 28 | 1005.9 |
| 20260501192505 | 63 | 360 | 7.0 | 11.3 | 0.00 | 0.00 | 0.00 | 28 | 1006.0 |
| 20260501192005 | 63 | 92 | 7.8 | 11.3 | 0.00 | 0.00 | 0.00 | 27 | 1006.1 |
| 20260501191504 | 63 | 92 | 7.8 | 15.6 | 0.00 | 0.00 | 0.00 | 28 | 1006.1 |
| 20260501191004 | 62 | 95 | 9.6 | 15.6 | 0.00 | 0.00 | 0.00 | 28 | 1006.1 |
| 20260501190505 | 62 | 121 | 4.3 | 8.7 | 0.00 | 0.00 | 0.00 | 30 | 1006.2 |
| 20260501190007 | 62 | 244 | 4.3 | 13.9 | 0.00 | 0.00 | 0.00 | 28 | 1006.1 |
| 20260501185504 | 62 | 185 | 4.3 | 13.9 | 0.00 | 0.00 | 0.00 | 28 | 1006.1 |
| 20260501185003 | 62 | 132 | 2.6 | 13.9 | 0.00 | 0.00 | 0.00 | 29 | 1006.2 |
| 20260501184504 | 63 | 127 | 8.7 | 13.9 | 0.00 | 0.00 | 0.00 | 28 | 1006.3 |
| 20260501184003 | 63 | 144 | 7.0 | 11.3 | 0.00 | 0.00 | 0.00 | 29 | 1006.3 |
| 20260501183505 | 62 | 188 | 5.2 | 11.3 | 0.00 | 0.00 | 0.00 | 29 | 1006.3 |
| 20260501182502 | 62 | 115 | 6.1 | 11.3 | 0.00 | 0.00 | 0.00 | 30 | 1006.3 |
| 20260501182102 | 61 | 217 | 5.2 | 8.7 | 0.00 | 0.00 | 0.00 | 29 | 1006.3 |
| 20260501181600 | 61 | 350 | 2.6 | 8.7 | 0.00 | 0.00 | 0.00 | 29 | 1006.3 |
| 20260501181503 | 61 | 350 | 2.6 | 8.7 | 0.00 | 0.00 | 0.00 | 29 | 1006.3 |
| 20260501181100 | 61 | 163 | 5.2 | 12.2 | 0.00 | 0.00 | 0.00 | 29 | 1006.3 |
| 20260501181003 | 61 | 164 | 6.1 | 12.2 | 0.00 | 0.00 | 0.00 | 29 | 1006.4 |